Location: Grust
(42.8833°N, 0.0333°W)
Time: 13:55:22
(UTC+00:00)

Cosmos 2369 - Pass Details

Date: 25 October 2020
Orbit: 840 x 855 km, 71.0° (Epoch: 24 November)

Event Time Altitude Azimuth Distance (km) Brightness Sun altitude
Rises 19:18:17 0° 199° (SSW) 3,409 7.0 -25.6°
Reaches altitude 10° 19:20:44 10° 198° (SSW) 2,476 6.2 -26.1°
Enters shadow 19:26:16 80° 138° (SE) 871 3.5 -27.1°
